Location: Palau
(42.3086°N, 3.1507°E)
Time: 20:31:12
(UTC+00:00)

SL-08 R/B - Pass Details

Date: 26 May 2020
Orbit: 675 x 739 km, 98.4° (Epoch: 13 July)

Event Time Altitude Azimuth Distance (km) Brightness Sun altitude
Exits shadow 02:54:10 10° 183° (S) 2,170 5.4 -12.9°
Reaches altitude 10° 02:54:12 10° 183° (S) 2,155 5.4 -12.9°
Maximum altitude 02:58:48 52° 260° (W) 860 3.5 -12.3°
Drops below altitude 10° 03:03:21 10° 337° (NNW) 2,136 6.1 -11.7°
Sets 03:05:39 0° 342° (NNW) 3,050 7.0 -11.4°
